TimeEDT,TemperatureF,Dew PointF,Humidity,Sea Level PressureIn,VisibilityMPH,Wind Direction,Wind SpeedMPH,Gust SpeedMPH,PrecipitationIn,Events,Conditions,WindDirDegrees,DateUTC
12:53 AM,78.1,75.9,93,29.97,10.0,NE,3.5,-,N/A,,Clear,40,2013-08-07 04:53:00
1:01 AM,78.8,75.2,89,29.98,10.0,NNE,5.8,-,N/A,,Partly Cloudy,30,2013-08-07 05:01:00
1:53 AM,78.1,75.9,93,29.96,9.0,ENE,5.8,-,N/A,,Clear,70,2013-08-07 05:53:00
2:53 AM,78.1,75.9,93,29.94,9.0,ESE,5.8,-,N/A,,Clear,110,2013-08-07 06:53:00
3:53 AM,77.0,75.9,96,29.94,8.0,East,6.9,-,N/A,,Clear,90,2013-08-07 07:53:00
4:53 AM,77.0,75.0,94,29.93,7.0,East,3.5,-,N/A,,Clear,90,2013-08-07 08:53:00
5:53 AM,77.0,75.0,94,29.94,7.0,East,4.6,-,N/A,,Clear,90,2013-08-07 09:53:00
6:53 AM,77.0,75.0,94,29.96,6.0,ENE,4.6,-,N/A,,Clear,70,2013-08-07 10:53:00
7:53 AM,77.0,75.9,96,29.96,6.0,East,3.5,-,N/A,,Clear,90,2013-08-07 11:53:00
8:53 AM,81.0,77.0,88,29.98,10.0,East,6.9,-,N/A,,Clear,80,2013-08-07 12:53:00
9:05 AM,82.4,77.0,84,29.98,10.0,Variable,5.8,-,N/A,,Partly Cloudy,0,2013-08-07 13:05:00
9:53 AM,82.9,75.9,79,29.99,10.0,ESE,5.8,-,N/A,,Scattered Clouds,110,2013-08-07 13:53:00
10:53 AM,87.1,75.0,67,29.99,10.0,ESE,8.1,-,N/A,,Partly Cloudy,110,2013-08-07 14:53:00
11:53 AM,89.1,75.0,63,29.99,10.0,ESE,5.8,-,N/A,,Unknown,110,2013-08-07 15:53:00
12:53 PM,90.0,73.9,59,29.98,10.0,East,6.9,-,N/A,,Partly Cloudy,90,2013-08-07 16:53:00
1:53 PM,91.9,73.0,54,29.96,10.0,NE,4.6,-,N/A,,Scattered Clouds,50,2013-08-07 17:53:00
2:53 PM,91.9,70.0,48,29.95,10.0,SE,3.5,-,N/A,,Clear,130,2013-08-07 18:53:00
3:53 PM,95.0,73.0,49,29.93,10.0,NNW,3.5,-,N/A,,Scattered Clouds,340,2013-08-07 19:53:00
4:53 PM,91.0,73.9,57,29.92,10.0,Variable,4.6,-,N/A,,Partly Cloudy,0,2013-08-07 20:53:00
5:28 PM,80.6,73.4,79,29.93,10.0,NE,17.3,24.2,N/A,,Mostly Cloudy,50,2013-08-07 21:28:00
5:46 PM,77.0,73.4,89,29.93,10.0,North,13.8,-,0.00,Rain,Light Rain,360,2013-08-07 21:46:00
5:53 PM,77.0,73.0,88,29.93,10.0,North,10.4,-,0.00,Rain,Light Rain,10,2013-08-07 21:53:00
6:53 PM,78.1,73.9,87,29.94,10.0,NW,4.6,-,0.02,,Scattered Clouds,310,2013-08-07 22:53:00
7:53 PM,77.0,75.0,94,29.96,10.0,South,3.5,-,0.00,,Scattered Clouds,170,2013-08-07 23:53:00
8:53 PM,75.9,73.9,94,29.96,10.0,East,3.5,-,N/A,,Clear,100,2013-08-08 00:53:00
9:53 PM,77.0,73.9,90,29.97,10.0,Calm,Calm,-,N/A,,Clear,0,2013-08-08 01:53:00
10:53 PM,77.0,75.0,94,29.97,10.0,NNE,4.6,-,N/A,,Clear,20,2013-08-08 02:53:00
11:53 PM,77.0,75.0,94,29.99,10.0,ESE,5.8,-,N/A,,Clear,110,2013-08-08 03:53:00